Dewpoint
68 71 72 73 73 72 72 72 71 72 73 73 73 73 73 73 73 74 74 74 74 74 73 72 72 71 70 70 71 72 72 72 72 72 72 72 71 71 71 72 71 70 71
68 71 71 72 73 72 72 72 72 72 73 73 73 73 73 73 73 73 74 74 74 73 72 71 71 71 71 71 71 71 72 71 71 71 72 71 71 71 71 71 71 70 71
69 71 72 72 72 72 73 72 72 73 73 73 73 72 73 73 73 74 74 74 73 73 72 71 71 71 71 71 71 71 71 71 71 71 71 69 69 71 71 71 71 71 71
69 71 71 72 72 72 72 72 73 73 73 73 73 73 72 73 73 73 73 73 74 73 72 72 71 71 71 71 70 71 71 70 70 70 69 69 69 71 71 70 70 70 70
69 70 71 71 72 72 72 72 72 73 72 72 72 73 73 73 73 73 73 73 73 74 72 72 72 72 71 70 70 70 70 70 69 68 67 68 68 70 70 70 70 70 70
68 69 70 70 71 72 72 72 72 72 71 71 72 72 73 73 73 72 72 73 74 74 73 73 73 71 70 70 69 70 70 69 68 67 67 69 68 70 70 70 70 70 70
68 69 70 69 71 72 73 72 72 71 71 71 71 72 72 73 73 72 72 72 73 73 73 73 72 70 70 70 69 69 69 67 66 67 67 68 68 70 70 70 70 70 70
68 69 69 70 70 71 72 71 71 71 71 71 71 71 72 72 71 71 71 72 72 72 72 71 70 70 69 69 69 68 67 65 64 65 66 66 68 71 70 70 69 69 69
68 68 68 69 70 70 70 70 70 70 70 70 70 70 71 71 70 71 71 71 71 71 71 71 70 69 69 69 68 67 66 66 59 63 65 66 69 70 69 69 69 69 69
68 67 67 67 68 68 69 69 69 69 69 70 70 70 70 70 70 70 70 71 71 71 71 70 69 69 69 68 68 67 66 66 63 64 64 66 69 70 69 69 69 70 69
63 67 66 67 67 68 68 70 70 70 69 69 70 69 68 70 70 70 69 69 70 70 70 69 69 68 68 68 68 67 66 66 65 65 65 66 68 69 69 70 70 70 69
46 61 67 66 66 67 68 68 68 69 70 70 70 69 70 70 69 70 69 68 69 68 69 68 68 67 67 67 67 67 65 65 65 65 64 66 68 69 69 69 69 69 69
50 52 55 59 65 67 68 68 67 68 69 69 69 70 70 69 69 69 68 68 68 68 69 68 66 66 66 66 66 65 65 65 64 64 64 66 68 70 69 69 69 69 69
46 48 50 52 54 56 58 60 66 68 68 68 68 69 69 69 68 68 68 69 69 69 68 68 67 67 66 66 65 65 65 64 64 64 64 64 67 69 70 69 69 69 68
42 44 47 47 49 52 53 56 57 59 61 66 68 68 68 68 68 68 67 68 68 68 68 67 66 66 65 65 65 65 64 64 64 64 64 64 65 67 68 69 69 69 68
39 40 43 43 44 47 49 51 54 56 59 61 63 64 67 68 67 68 68 68 67 68 67 66 66 65 65 66 65 65 64 64 63 64 64 64 63 65 67 69 69 68 68
36 37 38 39 38 40 44 47 50 52 55 57 59 60 60 61 66 67 67 68 67 67 67 66 66 66 64 65 64 65 65 64 63 64 64 64 64 63 64 66 68 68 68
32 33 34 35 35 35 37 41 43 48 50 52 53 56 59 59 59 60 66 67 67 68 67 67 66 65 64 64 64 64 64 64 63 63 64 64 64 64 63 64 66 67 68
30 30 31 32 32 33 34 37 39 44 46 48 49 52 53 54 58 59 64 65 65 66 67 67 66 65 64 64 64 63 64 64 63 63 63 63 63 64 64 63 64 64 66
28 28 29 30 30 31 33 34 35 39 39 41 45 47 50 53 55 58 60 60 62 62 65 66 66 66 65 64 63 63 63 63 63 63 63 63 63 63 64 64 64 64 63
27 27 27 28 29 30 31 30 31 32 32 38 37 41 47 50 52 54 57 57 56 62 62 64 65 65 64 64 61 61 61 61 62 63 63 63 63 63 63 64 64 65 64
26 27 27 27 28 28 29 29 30 30 32 33 37 40 42 46 47 46 49 52 55 59 62 62 64 63 64 65 61 61 59 61 62 62 63 62 63 63 62 63 63 63 64
26 27 28 28 28 29 29 29 29 29 30 31 32 33 36 38 41 46 47 49 53 57 61 60 61 63 61 63 63 59 57 57 59 61 62 62 62 62 62 62 62 62 63
27 28 29 29 28 29 30 29 28 28 28 29 30 31 33 36 39 42 44 45 49 53 56 60 61 60 61 61 62 63 61 59 57 56 60 62 62 62 62 62 62 62 62
28 28 28 28 29 29 29 29 29 28 29 30 30 31 32 34 36 39 42 45 47 50 54 58 60 59 60 61 61 61 61 60 59 56 56 60 62 62 62 62 62 62 61
27 27 27 30 28 28 28 28 28 28 29 30 31 31 32 34 35 37 39 41 46 50 53 57 59 61 61 61 61 61 59 58 57 57 55 56 59 60 62 62 61 61 61
Lifted_Index
-5 -5 -6 -6 -6 -6 -5 -5 -5 -5 -5 -6 -6 -5 -5 -5 -5 -5 -5 -6 -5 -5 -4 -4 -3 -3 -3 -3 -3 -3 -3 -3 -4 -4 -4 -4 -4 -4 -4 -5 -5 -5 -6
-5 -5 -6 -6 -6 -6 -5 -5 -5 -5 -5 -6 -6 -6 -5 -5 -6 -6 -6 -6 -5 -5 -4 -4 -3 -3 -3 -3 -3 -3 -3 -3 -4 -4 -4 -4 -4 -4 -4 -5 -5 -5 -6
-5 -5 -6 -6 -6 -6 -5 -5 -5 -5 -6 -6 -6 -6 -6 -6 -6 -6 -6 -6 -6 -5 -4 -4 -3 -3 -3 -3 -3 -3 -3 -3 -4 -4 -4 -4 -4 -4 -4 -4 -5 -5 -6
-5 -5 -6 -6 -6 -6 -5 -5 -6 -6 -6 -5 -5 -6 -6 -6 -6 -7 -7 -7 -6 -6 -5 -5 -4 -4 -3 -3 -3 -3 -3 -3 -3 -3 -3 -3 -4 -4 -4 -4 -4 -5 -5
-5 -5 -6 -6 -6 -6 -6 -6 -6 -6 -6 -5 -5 -6 -6 -6 -6 -7 -7 -7 -7 -7 -6 -5 -5 -4 -3 -3 -3 -3 -3 -3 -3 -3 -3 -3 -3 -4 -4 -4 -4 -5 -5
-6 -6 -6 -6 -6 -6 -6 -6 -6 -6 -6 -5 -5 -6 -6 -6 -6 -6 -6 -7 -7 -7 -7 -6 -5 -4 -4 -3 -3 -3 -3 -3 -2 -2 -3 -3 -3 -4 -4 -4 -4 -4 -5
-7 -6 -6 -6 -6 -6 -6 -6 -6 -6 -6 -6 -6 -6 -6 -6 -6 -6 -6 -7 -7 -7 -7 -6 -5 -4 -4 -3 -3 -3 -3 -3 -2 -2 -3 -3 -3 -4 -4 -4 -4 -4 -4
-6 -6 -6 -6 -5 -6 -6 -6 -6 -6 -6 -6 -6 -6 -6 -6 -6 -6 -6 -7 -7 -7 -7 -6 -5 -4 -4 -3 -3 -3 -3 -2 -2 -2 -2 -3 -3 -4 -4 -4 -3 -4 -4
-6 -6 -6 -5 -5 -5 -6 -6 -6 -6 -6 -6 -6 -6 -6 -6 -6 -6 -6 -7 -7 -6 -6 -6 -5 -4 -4 -3 -3 -3 -2 -2 -1 -1 -2 -2 -3 -4 -4 -4 -3 -3 -3
-5 -5 -6 -6 -5 -5 -6 -6 -6 -6 -6 -6 -6 -6 -6 -6 -6 -6 -6 -7 -7 -6 -6 -5 -4 -4 -4 -3 -3 -3 -3 -2 -1 -1 -1 -2 -3 -4 -4 -4 -3 -3 -3
-1 -4 -5 -6 -6 -6 -6 -5 -6 -6 -6 -6 -6 -6 -6 -7 -6 -6 -6 -7 -7 -6 -6 -5 -4 -4 -3 -3 -3 -3 -3 -2 -1 -1 -2 -2 -3 -4 -4 -4 -4 -3 -3
3 -1 -4 -6 -6 -6 -6 -6 -6 -6 -6 -6 -6 -6 -7 -7 -6 -6 -6 -7 -7 -7 -6 -6 -5 -4 -4 -3 -3 -3 -3 -2 -2 -2 -2 -2 -3 -4 -4 -4 -3 -3 -3
4 1 -3 -4 -5 -5 -6 -6 -6 -6 -6 -6 -6 -6 -7 -7 -7 -7 -7 -7 -7 -7 -7 -6 -5 -4 -4 -3 -3 -3 -2 -2 -2 -2 -2 -2 -3 -4 -4 -4 -3 -3 -3
4 2 -0 -1 -2 -4 -5 -5 -5 -5 -5 -6 -6 -6 -6 -7 -7 -7 -7 -7 -7 -7 -7 -7 -6 -5 -4 -3 -3 -2 -2 -2 -2 -2 -2 -2 -3 -4 -4 -4 -3 -3 -3
5 4 2 1 1 -1 -2 -3 -3 -4 -4 -5 -5 -6 -6 -6 -7 -7 -7 -7 -6 -7 -7 -7 -6 -5 -4 -4 -3 -3 -2 -2 -2 -2 -2 -2 -3 -3 -4 -4 -4 -3 -3
7 6 4 4 3 2 1 0 -0 -1 -2 -3 -4 -5 -5 -5 -6 -6 -7 -7 -6 -6 -7 -7 -7 -6 -5 -4 -3 -3 -3 -2 -2 -2 -2 -2 -2 -3 -4 -4 -4 -4 -3
9 8 7 6 5 5 4 3 3 2 1 0 -1 -2 -3 -4 -4 -5 -5 -6 -6 -6 -7 -7 -7 -7 -6 -5 -4 -3 -3 -3 -2 -2 -2 -2 -2 -3 -3 -4 -4 -4 -4
9 9 8 8 7 6 6 5 5 5 5 4 3 2 1 -0 -2 -3 -3 -4 -4 -5 -6 -7 -7 -7 -6 -5 -4 -4 -3 -3 -3 -3 -2 -2 -2 -2 -3 -3 -4 -4 -4
9 9 9 9 9 8 8 8 8 8 7 7 7 7 6 5 3 1 -1 -2 -2 -3 -4 -5 -6 -7 -7 -6 -5 -4 -3 -3 -4 -3 -3 -3 -3 -2 -3 -3 -3 -4 -4
10 10 10 9 9 9 9 8 8 8 9 9 10 10 10 9 7 5 2 1 0 -1 -2 -3 -5 -6 -6 -6 -6 -5 -4 -3 -3 -4 -4 -3 -3 -3 -3 -3 -3 -4 -4
10 10 9 9 9 9 9 8 8 8 8 9 10 11 11 10 9 8 5 3 1 0 -1 -2 -3 -4 -5 -6 -6 -5 -4 -3 -3 -4 -4 -4 -4 -4 -4 -3 -3 -3 -3
9 9 9 9 9 8 8 8 8 8 8 8 9 10 10 10 10 10 8 5 2 1 0 -0 -2 -3 -4 -4 -5 -4 -4 -3 -3 -4 -4 -5 -5 -5 -4 -4 -4 -4 -3
9 9 9 9 8 8 8 8 8 8 8 8 8 9 9 10 10 10 10 7 4 1 1 1 -0 -1 -2 -3 -3 -3 -3 -2 -3 -3 -4 -5 -5 -5 -5 -5 -4 -4 -4
8 9 9 9 9 9 9 8 8 7 7 8 8 8 8 9 10 10 10 9 6 3 1 1 1 0 -1 -2 -2 -2 -2 -2 -2 -2 -3 -4 -5 -5 -5 -5 -5 -5 -4
9 9 9 9 10 10 10 9 8 8 8 8 8 8 8 9 9 10 10 9 8 5 2 1 0 1 0 -1 -2 -2 -2 -2 -2 -2 -2 -3 -4 -5 -5 -5 -5 -5 -5
9 9 10 10 10 10 10 9 8 8 8 8 8 8 8 8 9 9 9 9 9 7 3 1 0 0 0 -1 -2 -2 -2 -2 -1 -1 -2 -2 -3 -4 -5 -5 -5 -5 -5